星链-36623(STARLINK-36623)

导读

STARLINK-36623是美国SpaceX公司星链(Starlink)星座的成员,于2026年1月30日发射,属于低轨通信卫星。星链项目旨在构建全球卫星互联网,该卫星将与其他数千颗卫星组网,为偏远地区、海洋和空中提供高速低延迟的互联网接入,同时也可支持应急通信与军事应用,不过其大规模部署也引发了太空资源占用等争议。

基本信息
目录编号:
67644
目录名称:
STARLINK-36623
国际标识:
2026-020AD
轨道中心:
EARTH
卫星名称:
星链-36623
卫星全名:
星链-36623(STARLINK-36623)
卫星状态:
在轨 (已飞行217 天)
发射日期:
2026-01-30 UTC
国别 :
美国 (US)
星等 :
--
轨道信息
数据来源 国际轨道数据 AOE轨道数据
星历时间 2026-09-04T13:42:54+0800
8小时前
查看轨道信息
2026-09-04T00:00:00+0800
22小时前
查看轨道信息
半长轴 6861.168km 6861.218km
偏心率 0.0001335 0.0000808
轨道倾角 43.001° 42.999°
近地点辐角 273.931° 237.478°
升交点赤经 211.138° 214.365°
平近点角 86.139° 216.278°
近地点 482.115km 482.526km
远地点 483.947km 483.636km
周期 94.266分钟 94.267分钟
每日圈数 15.275861 15.275695
详细信息
固有亮度:
5
最大亮度:
2.5
卫星平台:
Starlink V1.0
覆盖范围:
全球
运营商:
太空探索技术公司
运营商所在国:
美国
制造商(研发单位):
太空探索技术公司
制造商所在国:
美国
使用方式:
暂无
卫星简介
Starlink 计划是 SpaceX 推出的全球卫星互联网项目,通过发射低轨道卫星,为全球尤其是偏远地区提供高速、低延迟的互联网服务。自 2019 年起,Starlink 已部署数千颗卫星,旨在缩小全球数字鸿沟,推动互联网普及。该项目还为军事、航空等行业提供通信支持,带来广泛经济效益。
2D轨道图
3D轨道图
轨道高度分析图
轨道倾角分析图
轨道综合分析图
查看轨道综合分析图
交会数据列表
事件ID 空间交会对象 最接近时刻(TCA) 交会距离 交会风险概率(CRP) 交会风险指数(CRI) 操作
CDM_260901-045705-844106-764422
2026-09-01T
04:57:31+0000
0.740 km
远距离
4.714369E-5 中风险 0.68
CDM_260906-230805-762106-764421
2026-09-06T
23:08:01+0000
0.706 km
远距离
4.05488E-5 中风险 0.67
CDM_260905-222204-431006-764422
OBJECT A (44310)
2026-09-05T
22:22:38+0000
0.890 km
远距离
3.001358E-5 中风险 0.65
CDM_260831-031106-726906-764422
OBJECT X (67269)
2026-08-31T
03:11:52+0000
1.069 km
极远距离
1.727524E-5 中风险 0.6
CDM_260901-032305-844106-764422
2026-09-01T
03:23:22+0000
1.393 km
极远距离
5.569771E-6 低风险 0.5
CDM_260906-213305-762106-764421
2026-09-06T
21:33:51+0000
1.487 km
极远距离
3.356794E-6 低风险 0.46
CDM_260831-180306-008506-764423
2026-08-31T
18:03:43+0000
2.010 km
极远距离
2.217262E-6 低风险 0.42
CDM_260907-004205-762106-764421
2026-09-07T
00:42:10+0000
2.685 km
极远距离
8.446786E-7 极低风险 0.34